DUZEAR1 KHSP-KBKW

Flight info

Callsign DUZEAR1
Flight time 0h 21m
Altitude 8000
Route KHSP/25 N0252F080 DCT CEXAS DCT NATTS DCT FRETT DCT HEAVN DCT KBKW/19
Aircraft PC12/L-SDE2FGIRWY/SB1

Departure

Time 2026-05-08 21:48
Airport Ingalls Field (KHSP)

Arrival

Time 2026-05-08 22:10
Airport Raleigh County Memorial Airport (KBKW)
Time Latitude Longitude Altitude Speed Heading
2026-05-08 21:17 37.95301 -79.83506 3774 ft 0 kts 58°
2026-05-08 21:25 37.95300 -79.83506 3774 ft 0 kts 58°
2026-05-08 21:45 37.95299 -79.83482 3773 ft 8 kts 143°
2026-05-08 21:45 37.95271 -79.83446 3778 ft 9 kts 65°
2026-05-08 21:46 37.95296 -79.83393 3771 ft 7 kts 66°
2026-05-08 21:46 37.95298 -79.83267 3774 ft 21 kts 59°
2026-05-08 21:46 37.95399 -79.83053 3771 ft 29 kts 58°
2026-05-08 21:46 37.95499 -79.82845 3773 ft 17 kts 59°
2026-05-08 21:47 37.95547 -79.82744 3773 ft 11 kts 60°
2026-05-08 21:47 37.95589 -79.82654 3776 ft 9 kts 67°
2026-05-08 21:47 37.95573 -79.82591 3771 ft 0 kts 143°
2026-05-08 21:47 37.95534 -79.82587 3772 ft 14 kts 219°
2026-05-08 21:48 37.95416 -79.82825 3772 ft 62 kts 238°
2026-05-08 21:48 37.95090 -79.83503 3853 ft 108 kts 238°
2026-05-08 21:48 37.94655 -79.84385 4317 ft 126 kts 238°
2026-05-08 21:48 37.94181 -79.85383 5058 ft 131 kts 239°
2026-05-08 21:49 37.93724 -79.86366 5982 ft 127 kts 242°
2026-05-08 21:49 37.93492 -79.87436 6761 ft 134 kts 263°
2026-05-08 21:49 37.93558 -79.88658 7467 ft 144 kts 271°
2026-05-08 21:49 37.93628 -79.89990 7924 ft 156 kts 271°
2026-05-08 21:50 37.93707 -79.91479 8013 ft 188 kts 272°
2026-05-08 21:50 37.93809 -79.93248 8019 ft 211 kts 272°
2026-05-08 21:50 37.93918 -79.95152 8013 ft 221 kts 272°
2026-05-08 21:50 37.94029 -79.97102 8015 ft 224 kts 272°
2026-05-08 21:51 37.94141 -79.99080 8007 ft 225 kts 272°
2026-05-08 21:51 37.94251 -80.01078 8018 ft 232 kts 272°
2026-05-08 21:51 37.94365 -80.03137 7999 ft 235 kts 272°
2026-05-08 21:51 37.94481 -80.05205 7993 ft 237 kts 272°
2026-05-08 21:52 37.94598 -80.07291 7997 ft 237 kts 272°
2026-05-08 21:52 37.94707 -80.09375 7990 ft 236 kts 271°
2026-05-08 21:52 37.94791 -80.11458 7985 ft 237 kts 271°
2026-05-08 21:52 37.94872 -80.13542 7991 ft 237 kts 271°
2026-05-08 21:53 37.94962 -80.15624 7992 ft 237 kts 271°
2026-05-08 21:53 37.95050 -80.17710 7990 ft 237 kts 271°
2026-05-08 21:53 37.95140 -80.19797 7992 ft 237 kts 271°
2026-05-08 21:53 37.95225 -80.21883 7993 ft 237 kts 271°
2026-05-08 21:54 37.95311 -80.23967 7987 ft 236 kts 271°
2026-05-08 21:54 37.95398 -80.26042 7987 ft 236 kts 271°
2026-05-08 21:54 37.95485 -80.28126 7988 ft 237 kts 271°
2026-05-08 21:54 37.95567 -80.30179 7988 ft 236 kts 271°
2026-05-08 21:55 37.95655 -80.32281 7988 ft 236 kts 271°
2026-05-08 21:55 37.95740 -80.34363 7993 ft 237 kts 271°
2026-05-08 21:55 37.95824 -80.36426 7984 ft 237 kts 271°
2026-05-08 21:56 37.95991 -80.40595 7992 ft 237 kts 271°
2026-05-08 21:56 37.96082 -80.42675 7986 ft 237 kts 273°
2026-05-08 21:56 37.96258 -80.44754 7990 ft 238 kts 274°
2026-05-08 21:56 37.96428 -80.46838 7990 ft 237 kts 274°
2026-05-08 21:57 37.96593 -80.48924 7992 ft 238 kts 274°
2026-05-08 21:57 37.96761 -80.51011 8004 ft 238 kts 274°
2026-05-08 21:57 37.96930 -80.53102 8004 ft 239 kts 274°
2026-05-08 21:57 37.97100 -80.55197 8005 ft 239 kts 274°
2026-05-08 21:58 37.97266 -80.57296 7993 ft 240 kts 274°
2026-05-08 21:58 37.97433 -80.59387 7994 ft 237 kts 274°
2026-05-08 21:58 37.97599 -80.61476 7988 ft 238 kts 274°
2026-05-08 21:58 37.97767 -80.63568 7998 ft 239 kts 274°
2026-05-08 21:59 37.97933 -80.65659 8000 ft 239 kts 274°
2026-05-08 21:59 37.98098 -80.67758 7993 ft 240 kts 274°
2026-05-08 21:59 37.98265 -80.69860 7991 ft 239 kts 274°
2026-05-08 21:59 37.98430 -80.71958 7996 ft 240 kts 274°
2026-05-08 22:00 37.98594 -80.74060 7991 ft 240 kts 274°
2026-05-08 22:00 37.98758 -80.76163 7998 ft 239 kts 274°
2026-05-08 22:00 37.98925 -80.78271 7990 ft 240 kts 274°
2026-05-08 22:00 37.99088 -80.80370 7990 ft 239 kts 274°
2026-05-08 22:01 37.99252 -80.82470 7994 ft 240 kts 274°
2026-05-08 22:01 37.99414 -80.84576 7991 ft 240 kts 274°
2026-05-08 22:01 37.99580 -80.86682 7988 ft 240 kts 274°
2026-05-08 22:01 37.99743 -80.88789 7992 ft 240 kts 274°
2026-05-08 22:02 37.99795 -80.89473 7994 ft 240 kts 274°
2026-05-08 22:02 37.99901 -80.90872 7994 ft 240 kts 274°
2026-05-08 22:02 38.00064 -80.92976 7993 ft 240 kts 274°
2026-05-08 22:02 38.00257 -80.95075 7988 ft 238 kts 276°
2026-05-08 22:03 38.00483 -80.97172 7800 ft 242 kts 275°
2026-05-08 22:03 38.00701 -80.99300 7499 ft 242 kts 275°
2026-05-08 22:03 38.00905 -81.01217 7254 ft 201 kts 275°
2026-05-08 22:03 38.01080 -81.02915 7115 ft 198 kts 275°
2026-05-08 22:04 38.01051 -81.04545 6883 ft 187 kts 259°
2026-05-08 22:04 38.00656 -81.06127 6632 ft 182 kts 244°
2026-05-08 22:04 37.99961 -81.07467 6405 ft 182 kts 230°
2026-05-08 22:04 37.99004 -81.08530 6197 ft 187 kts 215°
2026-05-08 22:05 37.97823 -81.09240 5944 ft 188 kts 200°
2026-05-08 22:05 37.96551 -81.09531 5686 ft 189 kts 190°
2026-05-08 22:05 37.95331 -81.09721 5444 ft 159 kts 191°
2026-05-08 22:05 37.94224 -81.09915 5230 ft 158 kts 191°
2026-05-08 22:06 37.93156 -81.10096 5024 ft 154 kts 191°
2026-05-08 22:06 37.92079 -81.10275 4832 ft 152 kts 191°
2026-05-08 22:06 37.91012 -81.10453 4619 ft 156 kts 190°
2026-05-08 22:06 37.89942 -81.10627 4420 ft 155 kts 190°
2026-05-08 22:07 37.88879 -81.10808 4182 ft 152 kts 190°
2026-05-08 22:07 37.87828 -81.10982 3982 ft 139 kts 189°
2026-05-08 22:07 37.86974 -81.11124 3775 ft 112 kts 190°
2026-05-08 22:07 37.86191 -81.11251 3659 ft 115 kts 190°
2026-05-08 22:08 37.85421 -81.11383 3530 ft 106 kts 191°
2026-05-08 22:08 37.84736 -81.11491 3384 ft 103 kts 191°
2026-05-08 22:08 37.84005 -81.11614 3217 ft 103 kts 192°
2026-05-08 22:08 37.83324 -81.11727 3113 ft 100 kts 191°
2026-05-08 22:09 37.82614 -81.11848 2989 ft 106 kts 191°
2026-05-08 22:09 37.81882 -81.11970 2836 ft 105 kts 190°
2026-05-08 22:09 37.81153 -81.12089 2711 ft 105 kts 189°
2026-05-08 22:09 37.80457 -81.12202 2551 ft 98 kts 188°
2026-05-08 22:10 37.79816 -81.12311 2449 ft 87 kts 188°
2026-05-08 22:10 37.79282 -81.12399 2434 ft 64 kts 188°
2026-05-08 22:10 37.78983 -81.12449 2433 ft 25 kts 187°
2026-05-08 22:10 37.78761 -81.12486 2436 ft 28 kts 187°
2026-05-08 22:11 37.78582 -81.12516 2434 ft 19 kts 187°
2026-05-08 22:11 37.78494 -81.12484 2436 ft 8 kts 94°
2026-05-08 22:11 37.78490 -81.12445 2436 ft 0 kts 96°
2026-05-08 22:13 37.78481 -81.12353 2433 ft 13 kts 98°
2026-05-08 22:13 37.78468 -81.12231 2432 ft 9 kts 96°
2026-05-08 22:13 37.78418 -81.12208 2435 ft 3 kts 184°
2026-05-08 22:14 37.78414 -81.12208 2435 ft 0 kts 186°